STARLINK-11186, 60070

Orbit data source: Space-Track

STARLINK-11186, 60070 is a payload satellite owned by SpaceX/Seattle (US) in LEO that was launched on Wed, 19 Jun 2024 UTC via an FALCON 9 launch vehicle from the Air Force Western Test Range (AFWTR). Payload-class satellites include a variety of spacecraft equipped with specific instruments for various scientific and technological missions. These include communications satellites like Starlink; space stations such as the ISS; scientific satellites like the Hubble; Earth observation satellites from companies like Planet Labs, Umbra, and HawkEye 360; GPS; miniature CubeSats for education and research; and military/defense satellites.

Loading next visibility...
Identifier
60070, 2024-113M
Orbit
LEO
Last TLE update
15 hours ago
Origin
Manufacturer
SpaceX/Seattle
Mission
Operational Commercial Communications
Bus & Motor
STARLINK V2M, Unknown motor
Mass
730 kg wet, ~700 kg dry
Launch date (UTC)
2024-06-19 (11 months ago)
Launch vehicle
FALCON 9
Launch site
Air Force Western Test Range (AFWTR)
Object type
Payload
Rocket body
Debris
Shape & HBR
Box + 2 Pan, 29 m
Radar Cross Section
33.884 m², Large (>1 m²)

Expand to show TLE details & history

TLE from 15 hours ago
0 STARLINK-11186
1 60070U 24113M   25127.66791778 -.00001572  00000-0 -81338-5 0  9997
2 60070  53.1587 260.0342 0000787  58.3176 301.7919 15.69691568 51904
Epoch: 2025-05-07T16:01Z
Definitive object data (Epoch: 2025-05-07T16:01:48.096Z)
Latitude
0.00003°
Longitude
153.83435°
Altitude
360.415 km
Speed
7.694 km/s
True Right ascension
17h 20m 08s
True Declination
0° 00' 00"
Sunlit
Object was in full shadow at TLE epoch
Visualization TLE readout
Latitude
-44.58442°
Longitude
18.04632°
Altitude
375.36 km
Speed
7.684 km/s
Apparent Right ascension
05h 33m 28s
Apparent Declination
-49° 56' 02"
Sunlit
Object is in daylight
Visualization observer readout
Local Sidereal Time
14:53:15
Azimuth
236.821° WSW
Elevation
-60.335°
Doppler factor
1
Orbital elements
Apogee altitude
360.571 km
Perigee altitude
359.51 km
Semi-major axis
6,738.177 km
Eccentricity
0.0000787
Inclination
53.1587°
RAAN
260.0342°
Arg. of periapsis
58.3176°
True anomaly
301.78423°
Mean anomaly
301.7919°
Eccentric anomaly
301.78807°
Mean motion
3.924 °/min
BSTAR
-0.0000081338
Orbital period
91.74 mins
Loading maneuver chart data...
Loading SW <> Apogee altitude chart data...
Loading historical data...
Loading historical data...
Loading historical data...
Loading historical data...
Loading historical data...
Loading historical data...
Loading historical data...

STARLINK-11186 Visibility forecast

Observer location: undefined°, undefined°

Span
Click to sort rows by Start time (UTC) header in descending order
Start Az.
Max El. time (UTC)
Max El. Az.
Max El.
End time (UTC)
End Az.
4 mins2025-05-08 12:07:17.863Z274.107° WNW2025-05-08 12:08:17.863Z308.196° NW29.466°2025-05-08 12:11:17.863Z34.527° NE
|